| time (UTC) | temp F | wind direction | speed knots | gust knots | rain 1hr in | rain 24hr in | rain mn in | humidity % | barometer mb |
| 20260507110017 | 49 | 195 | 0.0 | 1.7 | 0.00 | 0.47 | 0.05 | 80 | 1012.0 |
| 20260507104532 | 49 | 195 | 0.0 | 0.0 | 0.00 | 0.47 | 0.05 | 85 | 1011.6 |
| 20260507103027 | 49 | 195 | 0.0 | 1.7 | 0.00 | 0.47 | 0.05 | 83 | 1011.2 |
| 20260507101515 | 49 | 195 | 0.0 | 1.7 | 0.00 | 0.47 | 0.05 | 85 | 1011.1 |
| 20260507100017 | 49 | 321 | 0.0 | 0.0 | 0.00 | 0.47 | 0.05 | 86 | 1011.0 |
| 20260507094521 | 49 | 186 | 0.0 | 0.0 | 0.00 | 0.47 | 0.05 | 89 | 1010.9 |
| 20260507093030 | 49 | 186 | 0.0 | 0.0 | 0.00 | 0.47 | 0.05 | 89 | 1010.8 |
| 20260507091531 | 49 | 186 | 0.0 | 0.0 | 0.00 | 0.47 | 0.05 | 91 | 1010.8 |
| 20260507090003 | 49 | 186 | 0.0 | 0.0 | 0.00 | 0.47 | 0.05 | 91 | 1010.2 |
| 20260507084506 | 49 | 186 | 0.0 | 0.0 | 0.00 | 0.47 | 0.05 | 92 | 1010.2 |
| 20260507083004 | 49 | 186 | 0.0 | 0.0 | 0.00 | 0.47 | 0.05 | 92 | 1010.6 |
| 20260507081507 | 49 | 171 | 0.0 | 0.0 | 0.00 | 0.47 | 0.05 | 92 | 1010.4 |
| 20260507080003 | 50 | 171 | 0.0 | 0.0 | 0.00 | 0.47 | 0.05 | 92 | 1010.6 |
| 20260507074504 | 50 | 171 | 0.0 | 0.0 | 0.00 | 0.47 | 0.05 | 92 | 1010.7 |
| 20260507073005 | 50 | 171 | 0.0 | 0.0 | 0.01 | 0.47 | 0.05 | 93 | 1010.7 |
| 20260507071505 | 51 | 171 | 0.0 | 0.0 | 0.01 | 0.47 | 0.05 | 94 | 1011.0 |
| 20260507070011 | 51 | 171 | 0.0 | 0.0 | 0.01 | 0.47 | 0.05 | 94 | 1011.1 |
| 20260507064505 | 51 | 171 | 0.0 | 0.0 | 0.01 | 0.47 | 0.05 | 94 | 1011.0 |
| 20260507063004 | 51 | 171 | 0.0 | 0.0 | 0.01 | 0.46 | 0.04 | 93 | 1010.9 |
| 20260507061504 | 51 | 171 | 0.0 | 0.0 | 0.03 | 0.46 | 0.04 | 92 | 1010.8 |
| 20260507060005 | 51 | 171 | 0.0 | 0.0 | 0.03 | 0.46 | 0.04 | 92 | 1010.9 |
| 20260507054507 | 51 | 171 | 0.0 | 0.0 | 0.04 | 0.46 | 0.04 | 90 | 1011.1 |
| 20260507053007 | 51 | 171 | 0.0 | 0.0 | 0.03 | 0.45 | 0.03 | 89 | 1011.0 |
| 20260507051506 | 52 | 171 | 0.0 | 1.7 | 0.01 | 0.43 | 0.01 | 88 | 1010.9 |
| 20260507050012 | 52 | 171 | 0.0 | 1.7 | 0.01 | 0.43 | 0.01 | 87 | 1010.9 |
| 20260507044508 | 52 | 286 | 0.0 | 0.9 | 0.00 | 0.42 | 0.00 | 86 | 1010.4 |
| 20260507043019 | 53 | 290 | 0.0 | 1.7 | 0.00 | 0.42 | 0.00 | 85 | 1010.4 |
| 20260507041508 | 53 | 342 | 0.0 | 1.7 | 0.00 | 0.42 | 0.00 | 84 | 1010.2 |
| 20260507040008 | 53 | 23 | 0.0 | 1.7 | 0.00 | 0.42 | 0.00 | 84 | 1010.1 |
| 20260507034503 | 53 | 346 | 0.0 | 0.0 | 0.00 | 0.42 | 0.42 | 85 | 1010.4 |
| 20260507033008 | 53 | 346 | 0.0 | 1.7 | 0.00 | 0.42 | 0.42 | 85 | 1010.7 |
| 20260507031517 | 54 | 351 | 0.0 | 3.5 | 0.00 | 0.42 | 0.42 | 84 | 1010.3 |
| 20260507030012 | 54 | 323 | 1.7 | 5.2 | 0.00 | 0.42 | 0.42 | 85 | 1010.0 |
| 20260507024514 | 55 | 5 | 2.6 | 5.2 | 0.00 | 0.42 | 0.42 | 86 | 1010.0 |
| 20260507023008 | 56 | 9 | 1.7 | 3.5 | 0.00 | 0.42 | 0.42 | 88 | 1009.8 |
| 20260507021513 | 57 | 210 | 0.0 | 0.0 | 0.00 | 0.42 | 0.42 | 89 | 1010.0 |
| 20260507020013 | 57 | 210 | 0.0 | 1.7 | 0.00 | 0.42 | 0.42 | 89 | 1010.1 |
| 20260507014512 | 58 | 210 | 0.0 | 1.7 | 0.00 | 0.42 | 0.42 | 88 | 1010.1 |
| 20260507013020 | 58 | 165 | 0.0 | 1.7 | 0.00 | 0.42 | 0.42 | 88 | 1009.9 |
| 20260507011513 | 60 | 306 | 0.0 | 1.7 | 0.00 | 0.42 | 0.42 | 89 | 1009.5 |
| 20260507010015 | 61 | 299 | 0.0 | 6.1 | 0.00 | 0.42 | 0.42 | 91 | 1009.4 |
| 20260507004513 | 61 | 214 | 0.9 | 1.7 | 0.02 | 0.42 | 0.42 | 94 | 1009.0 |
| 20260507003019 | 62 | 215 | 0.0 | 1.7 | 0.07 | 0.42 | 0.42 | 93 | 1008.3 |
| 20260507001544 | 62 | 215 | 0.9 | 0.9 | 0.16 | 0.42 | 0.42 | 93 | 1008.1 |
| 20260507000016 | 62 | 215 | 0.9 | 1.7 | 0.17 | 0.42 | 0.42 | 92 | 1007.9 |
| 20260506234516 | 62 | 207 | 0.9 | 3.5 | 0.15 | 0.40 | 0.40 | 90 | 1007.9 |
| 20260506233019 | 64 | 182 | 0.9 | 2.6 | 0.10 | 0.35 | 0.35 | 89 | 1007.9 |
| 20260506231507 | 65 | 147 | 0.0 | 3.5 | 0.01 | 0.26 | 0.26 | 85 | 1007.5 |
| 20260506230009 | 66 | 209 | 0.9 | 4.3 | 0.00 | 0.25 | 0.25 | 82 | 1007.0 |
| 20260506224509 | 66 | 206 | 1.7 | 3.5 | 0.00 | 0.25 | 0.25 | 81 | 1007.0 |
| 20260506223003 | 67 | 215 | 0.9 | 4.3 | 0.00 | 0.25 | 0.25 | 81 | 1007.1 |
| 20260506221504 | 67 | 203 | 0.9 | 4.3 | 0.00 | 0.25 | 0.25 | 81 | 1007.1 |
| 20260506220008 | 67 | 198 | 1.7 | 4.3 | 0.00 | 0.25 | 0.25 | 80 | 1006.9 |
| 20260506214510 | 67 | 206 | 0.9 | 5.2 | 0.00 | 0.25 | 0.25 | 81 | 1006.8 |
| 20260506213012 | 66 | 209 | 1.7 | 4.3 | 0.00 | 0.25 | 0.25 | 83 | 1006.7 |
| 20260506211504 | 65 | 111 | 0.0 | 1.7 | 0.00 | 0.25 | 0.25 | 85 | 1006.5 |
| 20260506210007 | 65 | 207 | 0.9 | 4.3 | 0.00 | 0.25 | 0.25 | 85 | 1006.6 |
| 20260506204508 | 65 | 196 | 2.6 | 4.3 | 0.00 | 0.25 | 0.25 | 85 | 1006.5 |
| 20260506203011 | 64 | 202 | 1.7 | 4.3 | 0.00 | 0.25 | 0.25 | 85 | 1006.6 |
| 20260506201519 | 64 | 216 | 1.7 | 4.3 | 0.00 | 0.25 | 0.25 | 86 | 1006.6 |
| 20260506200004 | 64 | 198 | 3.5 | 7.0 | 0.00 | 0.25 | 0.25 | 85 | 1006.6 |
| 20260506194508 | 64 | 198 | 2.6 | 7.0 | 0.00 | 0.25 | 0.25 | 86 | 1006.6 |
| 20260506193021 | 64 | 194 | 3.5 | 5.2 | 0.00 | 0.25 | 0.25 | 87 | 1006.6 |
| 20260506191515 | 63 | 203 | 2.6 | 5.2 | 0.00 | 0.25 | 0.25 | 88 | 1006.7 |
| 20260506190016 | 63 | 228 | 3.5 | 8.7 | 0.00 | 0.25 | 0.25 | 89 | 1006.9 |
| 20260506184505 | 62 | 208 | 3.5 | 8.7 | 0.00 | 0.25 | 0.25 | 89 | 1007.1 |
| 20260506183010 | 61 | 213 | 2.6 | 4.3 | 0.00 | 0.25 | 0.25 | 90 | 1007.3 |
| 20260506181512 | 61 | 207 | 3.5 | 7.0 | 0.00 | 0.25 | 0.25 | 91 | 1007.4 |
| 20260506180025 | 61 | 194 | 3.5 | 7.0 | 0.01 | 0.25 | 0.25 | 91 | 1007.4 |
| 20260506174517 | 61 | 200 | 3.5 | 6.1 | 0.02 | 0.25 | 0.25 | 91 | 1007.6 |
| 20260506173007 | 61 | 202 | 4.3 | 7.0 | 0.04 | 0.25 | 0.25 | 91 | 1007.5 |
| 20260506171512 | 61 | 209 | 1.7 | 7.8 | 0.04 | 0.25 | 0.25 | 91 | 1007.5 |
| 20260506170003 | 61 | 195 | 2.6 | 4.3 | 0.04 | 0.24 | 0.24 | 91 | 1007.6 |
| 20260506164517 | 61 | 201 | 3.5 | 6.1 | 0.04 | 0.23 | 0.23 | 90 | 1007.8 |
| 20260506163010 | 61 | 197 | 3.5 | 7.0 | 0.04 | 0.21 | 0.21 | 89 | 1007.8 |
| 20260506161512 | 61 | 203 | 4.3 | 9.6 | 0.06 | 0.21 | 0.21 | 89 | 1007.7 |
| 20260506160003 | 61 | 213 | 3.5 | 9.6 | 0.09 | 0.20 | 0.20 | 90 | 1007.3 |
| 20260506154503 | 61 | 212 | 3.5 | 10.4 | 0.10 | 0.19 | 0.19 | 90 | 1007.6 |
| 20260506153003 | 61 | 217 | 2.6 | 7.8 | 0.10 | 0.17 | 0.17 | 90 | 1008.2 |
| 20260506151507 | 61 | 177 | 4.3 | 8.7 | 0.10 | 0.15 | 0.15 | 90 | 1008.6 |
| 20260506150011 | 62 | 205 | 5.2 | 9.6 | 0.07 | 0.11 | 0.11 | 88 | 1008.6 |
| 20260506144503 | 62 | 201 | 4.3 | 7.8 | 0.05 | 0.09 | 0.09 | 88 | 1008.3 |
| 20260506143004 | 62 | 201 | 3.5 | 7.8 | 0.04 | 0.07 | 0.07 | 88 | 1008.3 |
| 20260506141518 | 61 | 207 | 3.5 | 7.0 | 0.03 | 0.05 | 0.05 | 87 | 1008.1 |
| 20260506140020 | 62 | 211 | 4.3 | 9.6 | 0.03 | 0.04 | 0.04 | 86 | 1008.4 |
| 20260506134516 | 62 | 202 | 2.6 | 7.8 | 0.03 | 0.04 | 0.04 | 86 | 1008.3 |
| 20260506133003 | 62 | 205 | 3.5 | 5.2 | 0.03 | 0.03 | 0.03 | 86 | 1008.4 |
| 20260506131509 | 62 | 198 | 1.7 | 5.2 | 0.02 | 0.02 | 0.02 | 86 | 1008.8 |
| 20260506130008 | 62 | 210 | 3.5 | 6.1 | 0.01 | 0.01 | 0.01 | 85 | 1008.8 |
| 20260506124513 | 62 | 202 | 2.6 | 7.0 | 0.01 | 0.01 | 0.01 | 84 | 1008.8 |
| 20260506123018 | 63 | 199 | 2.6 | 6.1 | 0.00 | 0.00 | 0.00 | 82 | 1008.9 |
| 20260506121508 | 63 | 185 | 4.3 | 7.0 | 0.00 | 0.00 | 0.00 | 80 | 1008.7 |
| 20260506120011 | 64 | 214 | 3.5 | 7.0 | 0.00 | 0.00 | 0.00 | 78 | 1008.5 |
| 20260506114510 | 65 | 196 | 2.6 | 7.0 | 0.00 | 0.00 | 0.00 | 75 | 1008.5 |
| 20260506113013 | 65 | 203 | 2.6 | 6.1 | 0.00 | 0.00 | 0.00 | 72 | 1008.3 |
| 20260506111523 | 66 | 181 | 3.5 | 6.1 | 0.00 | 0.00 | 0.00 | 71 | 1008.3 |